User: anonymous   Login
Location: Pine Mountain Observatory
(43.7910°N, 120.9377°W)
Time: 18:26:16
(UTC-08:00)
Language:

Cosmos 1076 Rocket - Orbit

View from above orbital plane
View from above orbital plane
View from above satellite
View from above satellite

Ground track
Ground track

The orbit data is extracted from the following two-line orbital elements,

1 11267U 79011B   16041.85183234  .00000387  00000-0  38659-4 0  9994
2 11267  82.5278 334.2463 0018504  68.8382 291.4811 14.88714673  2219
Epoch (UTC): 10 February 2016 20:26:38
Eccentricity: 0.0018504
inclination: 82.5278°
perigee height: 589 km
apogee height: 615 km
right ascension of ascending node: 334.2463°
argument of perigee: 68.8382°
revolutions per day: 14.88714673
mean anomaly at epoch: 291.4811°
orbit number at epoch: 221

The dashed part of the orbit path shows where the satellite is in the earth's shadow,  

DLR